TimeAKST,TemperatureF,Dew PointF,Humidity,Sea Level PressureIn,VisibilityMPH,Wind Direction,Wind SpeedMPH,Gust SpeedMPH,PrecipitationIn,Events,Conditions,WindDirDegrees,DateUTC
12:01 AM,1.0,-11.9,55,30.37,10.0,NW,9.2,-,N/A,,Clear,310,2013-01-25 09:01:00
1:01 AM,6.1,-9.9,48,30.38,10.0,North,11.5,19.6,N/A,,Clear,10,2013-01-25 10:01:00
2:01 AM,1.9,-11.0,55,30.38,10.0,NNW,10.4,-,N/A,,Clear,330,2013-01-25 11:01:00
3:01 AM,3.9,-9.0,55,30.38,10.0,North,16.1,-,N/A,,Clear,350,2013-01-25 12:01:00
4:01 AM,3.0,-9.9,55,30.38,10.0,North,15.0,-,N/A,,Clear,360,2013-01-25 13:01:00
5:01 AM,3.0,-9.9,55,30.39,10.0,North,15.0,-,N/A,,Clear,360,2013-01-25 14:01:00
6:01 AM,3.0,-9.0,57,30.38,10.0,North,13.8,-,N/A,,Clear,360,2013-01-25 15:01:00
7:01 AM,1.9,-8.0,63,30.38,10.0,North,9.2,-,N/A,,Clear,350,2013-01-25 16:01:00
8:01 AM,3.9,-8.0,58,30.37,10.0,North,11.5,-,N/A,,Clear,10,2013-01-25 17:01:00
9:01 AM,3.0,-9.9,55,30.37,10.0,North,15.0,-,N/A,,Clear,360,2013-01-25 18:01:00
10:01 AM,3.9,-9.9,53,30.37,10.0,NNW,13.8,-,N/A,,Clear,340,2013-01-25 19:01:00
11:01 AM,3.0,-11.9,50,30.39,10.0,North,16.1,24.2,N/A,,Clear,350,2013-01-25 20:01:00
12:01 PM,3.0,-11.9,50,30.40,10.0,NNW,13.8,20.7,N/A,,Clear,340,2013-01-25 21:01:00
1:01 PM,3.0,-13.0,47,30.40,10.0,NNW,12.7,-,N/A,,Clear,340,2013-01-25 22:01:00
2:01 PM,3.0,-14.1,45,30.40,10.0,North,10.4,-,N/A,,Clear,360,2013-01-25 23:01:00
3:01 PM,5.0,-13.0,43,30.39,10.0,North,10.4,17.3,N/A,,Clear,350,2013-01-26 00:01:00
4:01 PM,5.0,-13.0,43,30.38,10.0,North,8.1,-,N/A,,Clear,360,2013-01-26 01:01:00
5:01 PM,1.9,-14.1,47,30.39,10.0,North,5.8,-,N/A,,Clear,10,2013-01-26 02:01:00
6:01 PM,-0.0,-14.1,52,30.39,10.0,NNW,10.4,-,N/A,,Clear,340,2013-01-26 03:01:00
7:01 PM,-0.9,-15.0,52,30.39,10.0,NNW,11.5,-,N/A,,Clear,340,2013-01-26 04:01:00
8:01 PM,-0.9,-15.0,52,30.39,10.0,NNW,9.2,-,N/A,,Clear,340,2013-01-26 05:01:00
9:01 PM,-0.9,-16.1,49,30.39,10.0,NNW,9.2,-,N/A,,Clear,340,2013-01-26 06:01:00
10:01 PM,-2.9,-18.0,49,30.39,10.0,NW,3.5,-,N/A,,Clear,320,2013-01-26 07:01:00
11:01 PM,-2.0,-20.0,42,30.38,10.0,NNW,9.2,-,N/A,,Clear,340,2013-01-26 08:01:00